Orbital Elements at Epoch 2457931.5 (2017-Jun-27.0) TDB
Reference: JPL 3 (heliocentric ecliptic J2000)
Element | Value | Uncertainty (1-sigma) | Units |
e | .6661844023605874 | 0.0010723 | |
a | .8865896063619305 | 0.00072309 | au |
q | .2959574393085994 | 0.00070934 | au |
i | 23.23313485671283 | 0.099401 | deg |
node | 98.65162577742814 | 0.018962 | deg |
peri | 336.3608254710012 | 0.018732 | deg |
M | 266.4327287120685 | 0.21077 | deg |
tp | 2458010.750834490076 (2017-Sep-14.25083449) | 0.081586 | TDB |
period | 304.9175210916648 0.83 | 0.37303 0.001021 | d yr |
n | 1.180647142581801 | 0.0014444 | deg/d |
Q | 1.477221773415262 | 0.0012048 | au |
|
| | Orbit Determination Parameters
Additional Information
|